ECHOSTAR 16

Last updated on Sun Apr 12 2026 00:02:53 GMT+0000 (Coordinated Universal Time)

1 39008U 12065A 26100.79546816 .00000000 00000+0 00000+0 0 9997 2 39008 0.0164 191.4262 0001948 186.7264 45.7483 1.00268212 48964
UTC large
Height (km)
Speed (km/s)
/
Latitude / Longitude
Inclination (degrees)
Orbital Period (minutes)
Azimuth
Elevation
Range (km)
Doppler Factor

Next 0 passes for location: London (51.5072 / 0.1276)

Sorry there are no passes over London.
ECHOSTAR 16